Regional Weather Roundup
Issued by NWS

Home | Current Version | Previous Version | Text Only | Print | Product List | Glossary On
Versions: 1 2 3 4 5 6 7 8 9 10 11 12 13 14 15 16 17 18 19 20 21 22 23 24 25 26 27 28 29 30 31 32 33 34 35 36 37 38 39 40 41 42 43 44 45 46 47 48 49 50
000
ASUS43 KMKX 061810
RWRWI

WISCONSIN REGIONAL WEATHER ROUNDUP
NATIONAL WEATHER SERVICE MILWAUKEE/SULLIVAN WI
1200 PM CST SAT FEB 06 2016

NOTE: "FAIR" INDICATES FEW OR NO CLOUDS BELOW 12,000 FEET WITH NO
SIGNIFICANT WEATHER AND/OR OBSTRUCTIONS TO VISIBILITY.

WIZ001-002-006>008-014>016-023>028-061900-
NORTHWEST WISCONSIN

CITY           SKY/WX    TMP DP  RH WIND       PRES   REMARKS
SUPERIOR ARPT  CLOUDY    31  23  72 SW10G16   29.96F WCI  22
6HR MIN TEMP:  19; 6HR MAX TEMP:  31;

ASHLAND        CLOUDY    30  21  69 S10       30.00F WCI  21
6HR MIN TEMP:  20; 6HR MAX TEMP:  30;

HAYWARD        CLOUDY    28  20  71 S10       30.00F WCI  19
6HR MIN TEMP:  22; 6HR MAX TEMP:  28;

SIREN          CLOUDY    33  23  67 S10       30.00F WCI  25
6HR MIN TEMP:  24; 6HR MAX TEMP:  33;

CUMBERLAND     CLOUDY    28  21  74 S14       30.02F WCI  17
RICE LAKE      CLOUDY    28  22  78 S12       30.06F WCI  18
6HR MIN TEMP:  24; 6HR MAX TEMP:  28;

CHETEK         CLOUDY    28  22  76 S7        30.06F WCI  21
6HR MIN TEMP:  24; 6HR MAX TEMP:  28;

LADYSMITH      CLOUDY    29  22  76 S9        30.06F WCI  20
6HR MIN TEMP:  23; 6HR MAX TEMP:  29;

EAU CLAIRE     SUNNY     29  21  72 S13       30.08F WCI  19
6HR MIN TEMP:  25; 6HR MAX TEMP:  29;

MENOMONIE      CLOUDY    33  24  68 S9        30.09F WCI  26
6HR MIN TEMP:  26; 6HR MAX TEMP:  33;

NEW RICHMOND   SUNNY     30  23  75 S14       30.04F WCI  20
6HR MIN TEMP:  24; 6HR MAX TEMP:  30;

OSCEOLA        SUNNY     32  25  75 S10       30.06F WCI  24
6HR MIN TEMP:  25; 6HR MAX TEMP:  32;

$$

WIZ003>005-009-010-017-018-061900-
NORTH CENTRAL WISCONSIN

CITY           SKY/WX    TMP DP  RH WIND       PRES   REMARKS
MANITOWISH WTR CLOUDY    25  20  82 S8        30.00F WCI  16
6HR MIN TEMP:  20; 6HR MAX TEMP:  25;

ARBOR VITAE    CLOUDY    27  20  77 SW7       30.01F WCI  19
6HR MIN TEMP:  22; 6HR MAX TEMP:  27;

WOODRUFF       CLOUDY    27  20  77 SW7       30.01F WCI  19
6HR MIN TEMP:  22; 6HR MAX TEMP:  27;

RHINELANDER    CLOUDY    25  19  78 SW10      30.03F WCI  15
6HR MIN TEMP:  20; 6HR MAX TEMP:  25;

EAGLE RIVER    CLOUDY    25  18  77 SW10      30.01F WCI  14
LAND O LAKES   CLOUDY    27  19  74 SW7       30.01F WCI  19
6HR MIN TEMP:  21; 6HR MAX TEMP:  27;

PHILLIPS       CLOUDY    26  20  80 SW9       30.02F WCI  17
6HR MIN TEMP:  21; 6HR MAX TEMP:  26;

TOMAHAWK       CLOUDY    27  20  75 SW3       30.05F
6HR MIN TEMP:  21; 6HR MAX TEMP:  27;

MEDFORD        CLOUDY    26  22  82 SW9       30.05F WCI  17
6HR MIN TEMP:  22; 6HR MAX TEMP:  26;

MERRILL        CLOUDY    27  22  79 W9        30.07F WCI  18
6HR MIN TEMP:  22; 6HR MAX TEMP:  27;

$$

WIZ029-030-035-036-043>047-061900-
CENTRAL WISCONSIN

CITY           SKY/WX    TMP DP  RH WIND       PRES   REMARKS
WAUSAU         CLOUDY    28  22  78 SW12      30.06F WCI  18
6HR MIN TEMP:  24; 6HR MAX TEMP:  28;

MOSINEE        CLOUDY    27  25  93 W10       30.09F WCI  17
MARSHFIELD     CLOUDY    29  21  72 SW12      30.07F WCI  19
6HR MIN TEMP:  24; 6HR MAX TEMP:  29;

STEVENS POINT  CLOUDY    27  22  82 SW9G16    30.10F WCI  17
6HR MIN TEMP:  22; 6HR MAX TEMP:  27;

WAUPACA        CLOUDY    31  25  77 SW9       30.13F WCI  23
6HR MIN TEMP:  28; 6HR MAX TEMP:  31;

WAUTOMA        CLOUDY    30  25  80 SW9       30.13F WCI  22
6HR MIN TEMP:  26; 6HR MAX TEMP:  30;

WISC RAPIDS    CLOUDY    29  22  75 SW12      30.12F WCI  19
6HR MIN TEMP:  25; 6HR MAX TEMP:  29;

CAMP DOUGLAS   PTSUNNY   30  30 100 SW8       30.12F WCI  23
                                      6HR PCP: TRACE;

$$

WIZ011>013-019>022-031-037>040-048>050-061900-
NORTHEAST WISCONSIN

CITY           SKY/WX    TMP DP  RH WIND       PRES   REMARKS
ANTIGO         CLOUDY    25  21  86 W13       30.05F WCI  13
6HR MIN TEMP:  20; 6HR MAX TEMP:  25;

SHAWANO        CLOUDY    30  23  75 W6        30.11F WCI  24
6HR MIN TEMP:  27; 6HR MAX TEMP:  31;

OCONTO         CLOUDY    28  23  81 W13G18    30.11F WCI  17
6HR MIN TEMP:  25; 6HR MAX TEMP:  28;

STURGEON BAY   CLOUDY    27  19  74 W10       30.12F WCI  17
6HR MIN TEMP:  25; 6HR MAX TEMP:  27;

GREEN BAY      CLOUDY    29  23  78 W14       30.13F WCI  18
6HR MIN TEMP:  26; 6HR MAX TEMP:  29;

MANITOWOC      CLOUDY    31  24  75 W14G20    30.13F WCI  21
6HR MIN TEMP:  28; 6HR MAX TEMP:  31; 6HR PCP: TRACE;

APPLETON       CLOUDY    28  23  80 SW9G16    30.11F WCI  20
CLINTONVILLE   CLOUDY    30  23  74 SW9       30.12S WCI  22
OSHKOSH        CLOUDY    30  23  75 W10G16    30.13F WCI  21
6HR MIN TEMP:  27; 6HR MAX TEMP:  30;

$$

WIZ032>034-041-042-053>061-061900-
SOUTHWEST WISCONSIN

CITY           SKY/WX    TMP DP  RH WIND       PRES   REMARKS
LA CROSSE      SUNNY     31  23  72 S12       30.15F WCI  22
6HR MIN TEMP:  28; 6HR MAX TEMP:  31;

SPARTA         SUNNY     32  24  72 SW8       30.14F WCI  25
6HR MIN TEMP:  26; 6HR MAX TEMP:  32;

VIROQUA        PTSUNNY   31  24  77 SW8       30.13F WCI  23
6HR MIN TEMP:  26; 6HR MAX TEMP:  32;

BOSCOBEL       CLOUDY    32  25  75 SW9       30.19F WCI  24
6HR MIN TEMP:  29; 6HR MAX TEMP:  33;

PRAIRIE DU CHI CLOUDY    32  24  72 SW9       30.19F WCI  24
6HR MIN TEMP:  29; 6HR MAX TEMP:  32;

PLATTEVILLE    CLOUDY    31  29  91 SW10      30.18F WCI  22
6HR MIN TEMP:  27; 6HR MAX TEMP:  31;

$$

WIZ056-057-062-063-064-067-068-061900-
SOUTH CENTRAL WISCONSIN

CITY           SKY/WX    TMP DP  RH WIND       PRES   REMARKS
REEDSBURG      CLOUDY    30  24  78 SW9       30.14F WCI  22
6HR MIN TEMP:  27; 6HR MAX TEMP:  30;

BARABOO/DELLS  CLOUDY    31  24  76 SW12      30.14F WCI  21
6HR MIN TEMP:  27; 6HR MAX TEMP:  31;

LONE ROCK      CLOUDY    31  25  78 W10       30.18F WCI  22
6HR MIN TEMP:  28; 6HR MAX TEMP:  31;

MINERAL POINT  CLOUDY    32  30  93 SW10      30.16F WCI  24
MADISON        CLOUDY    30  24  78 SW8       30.16F WCI  22
6HR MIN TEMP:  26; 6HR MAX TEMP:  30;

MIDDLETON      CLOUDY    32  27  80 W13       30.17S WCI  23
6HR MIN TEMP:  28; 6HR MAX TEMP:  32;

WATERTOWN      CLOUDY    31  27  84 SW10      30.16S WCI  22
6HR MIN TEMP:  27; 6HR MAX TEMP:  31;

MONROE         CLOUDY    30  28  93 SW15      30.16F WCI  19
JANESVILLE     CLOUDY    32  28  86 SW13      30.18F WCI  22
$$

WIZ051-052-058>065-066-070>072-061900-
SOUTHEAST WISCONSIN

CITY           SKY/WX    TMP DP  RH WIND       PRES   REMARKS
MILWAUKEE      CLOUDY    33  24  69 W14       30.16F WCI  23
6HR MIN TEMP:  26; 6HR MAX TEMP:  33;

WAUKESHA       CLOUDY    28  25  86 SW12      30.17F FOG     WCI  18
MILWAUKEE/TIMM CLOUDY    30  23  74 SW15G22   30.17F WCI  19
RACINE         CLOUDY    33  24  69 SW13      30.19F WCI  24
6HR MIN TEMP:  26; 6HR MAX TEMP:  33;

BURLINGTON     CLOUDY    30  24  79 SW12      30.18F WCI  21
6HR MIN TEMP:  23; 6HR MAX TEMP:  30;

KENOSHA        CLOUDY    33  26  75 SW15      30.18F WCI  23
6HR MIN TEMP:  25; 6HR MAX TEMP:  34;

FOND DU LAC    CLOUDY    30  24  78 SW12      30.14F WCI  20
6HR MIN TEMP:  27; 6HR MAX TEMP:  30;

SHEBOYGAN      CLOUDY    30  24  78 W14       30.14F WCI  19
6HR MIN TEMP:  28; 6HR MAX TEMP:  30;

WEST BEND      CLOUDY    30  25  80 SW13G18   30.14F WCI  20
JUNEAU         CLOUDY    29  24  83 SW13G20   30.15F WCI  19
6HR MIN TEMP:  26; 6HR MAX TEMP:  29;

$$

LSZ147-162-061900-
LAKE SUPERIOR

STATION/POSITION TIME  TEMP    WIND        PRES    WAVE
                       AIR SEA DIR/SP/G            HT/PER
                 (UTC) (F)     (DEG/KT/KT) (MB)    (FT/S)
DEVILS ISLAND    1800   27     170/  7/  9 1016.3F
SAXON HARBOR     1700   30                 1016.9
$$

LMZ867-665-643>646-061900-
LAKE MICHIGAN

STATION/POSITION TIME  TEMP    WIND        PRES    WAVE
                       AIR SEA DIR/SP/G            HT/PER
                 (UTC) (F)     (DEG/KT/KT) (MB)    (FT/S)
CHAMBERS ISLAND  1700 C1F1C2F2C3F3C4F4C5F5C6F6C7F7C8M1C9M2Ca!


USA.gov is the U.S. government's official web portal to all federal, state and local government web resources and services.